Home   Weather   Melbourne   Past weeks

Flag for Australia Past Weather in Melbourne, Victoria, Australia — Yesterday and Last 2 Weeks

Now
70 °F

Passing clouds.


Feels Like: 70 °F
Forecast: 48 / 78 °F
Wind: 13 mph from Southeast

Location: Melbourne Airport

Current Time: Dec 6, 2016 at 4:55:10 pm

Latest Report: Dec 6, 2016 at 4:00 pm


Visibility: N/A

Pressure: 29.92 "Hg

Humidity: 43%

Dew Point: 46 °F

Location of MelbourneLocation

Past Weather in Melbourne — Graph

°F

Melbourne Temperature Yesterday

Maximum temperature yesterday: 72 °F (at 2:00 am)
Minimum temperature yesterday: 57 °F (at 11:00 pm)
Average temperature yesterday: 65 °F

High & Low Weather Summary for the Past Weeks

 TemperatureHumidityPressure
High93 °F (Nov 21, 4:00 pm)100% (Nov 22, 6:00 am)30.15 "Hg (Nov 22, 6:00 am)
Low45 °F (Dec 3, 4:00 am)19% (Nov 21, 5:00 pm)29.62 "Hg (Nov 21, 5:00 pm)
Average60 °F71%29.93 "Hg
* Reported Nov 21 3:00 pm — Dec 6 3:30 pm, Melbourne, Weather by CustomWeather, © 2016

Note: Actual official high and low records may vary slightly from our data, if they occured in-between our weather recording intervals... More about our weather records

Advertising

Melbourne Weather History for the Previous 24 Hours

Scroll right to see more
 ConditionsComfort  
Time TempWeatherWind HumidityBarometerVisibility
3:30 pm
Tue, Dec 6
70 °FScattered clouds.12 mph43%29.92 "HgN/A
3:00 pm68 °FPartly sunny.13 mph46%29.92 "HgN/A
2:30 pm68 °FScattered clouds.8 mph43%29.92 "HgN/A
2:00 pm68 °FBroken clouds.12 mph49%29.92 "HgN/A
1:00 pm66 °FPartly sunny.8 mph49%29.92 "HgN/A
12:30 pm66 °FPartly sunny.6 mph52%29.95 "HgN/A
12:00 pm66 °FPartly sunny.6 mph56%29.95 "HgN/A
11:00 am61 °FPartly sunny.5 mph63%29.95 "HgN/A
10:00 am61 °FMore clouds than sun.5 mph63%29.95 "HgN/A
9:30 am59 °FPartly sunny.6 mph68%29.95 "HgN/A
9:00 am59 °FPartly sunny.6 mph68%29.95 "HgN/A
8:30 am59 °FPartly sunny.6 mph68%29.95 "HgN/A
8:00 am57 °FOvercast.3 mph72%29.95 "HgN/A
7:30 am57 °FOvercast.1 mph72%29.95 "HgN/A
7:00 am57 °FOvercast.No wind72%29.92 "HgN/A
6:30 am55 °FOvercast.No wind77%29.92 "HgN/A
6:00 am54 °FBroken clouds.2 mph77%29.89 "HgN/A
5:30 am54 °FPassing clouds.2 mph77%29.89 "HgN/A
5:00 am54 °FPassing clouds.No wind77%29.89 "HgN/A
4:30 am55 °FPartly cloudy.No wind72%29.89 "HgN/A
4:00 am57 °FPassing clouds.5 mph67%29.89 "HgN/A
3:30 am57 °FPassing clouds.8 mph67%29.86 "HgN/A
3:00 am57 °FPartly cloudy.8 mph67%29.89 "HgN/A
2:30 am57 °FPartly cloudy.7 mph67%29.89 "HgN/A
2:00 am57 °FPassing clouds.9 mph67%29.89 "HgN/A
1:00 am57 °FPassing clouds.8 mph72%29.92 "HgN/A
12:30 am57 °FPartly cloudy.9 mph72%29.92 "HgN/A
12:00 am57 °FPassing clouds.12 mph72%29.92 "HgN/A
11:30 pm
Mon, Dec 5
57 °FPassing clouds.12 mph77%29.92 "HgN/A
11:00 pm57 °FPassing clouds.10 mph77%29.95 "HgN/A
10:00 pm59 °FPartly cloudy.9 mph72%29.98 "HgN/A
9:30 pm59 °FPassing clouds.13 mph72%29.95 "HgN/A
9:00 pm59 °FPartly cloudy.14 mph72%29.95 "HgN/A
8:30 pm59 °FPartly cloudy.13 mph77%29.92 "HgN/A
8:00 pm59 °FBroken clouds.15 mph77%29.92 "HgN/A
7:00 pm63 °FPartly sunny.17 mph64%29.92 "HgN/A
6:30 pm64 °FBroken clouds.16 mph60%29.92 "HgN/A
6:00 pm64 °FPartly sunny.16 mph60%29.89 "HgN/A
5:30 pm64 °FPartly sunny.15 mph56%29.89 "HgN/A
5:00 pm66 °FSunny.15 mph49%29.89 "Hg10 mi
4:00 pm70 °FBroken clouds.14 mph50%29.89 "HgN/A
Weather by CustomWeather, © 2016

See weather overviewHow to use our weather pages